Location: Standeford and Andreas Observatories
(44.1397°N, 93.9969°W)
Time: 14:21:25
(UTC-05:00)

Cosmos 1500 Rocket - Visible Passes

Search period start: 21 September 2017 00:00
Search period end: 01 October 2017 00:00
Orbit: 604 x 631 km, 82.5° (Epoch: 20 September)

Date Brightness Start Highest point End Pass type
(mag) Time Alt. Az. Time Alt. Az. Time Alt. Az.
21 Sep 6.3 22:40:22 10° N 22:40:59 14° N 22:40:59 14° N visible
22 Sep 6.5 22:57:16 10° NNW 22:57:48 13° NNW 22:57:48 13° NNW visible
23 Sep 6.1 21:37:07 10° NNE 21:37:31 12° NNE 21:37:31 12° NNE visible
23 Sep 6.7 23:14:25 10° NNW 23:14:38 11° NNW 23:14:38 11° NNW visible
24 Sep 6.0 21:53:30 10° N 21:54:22 15° NNE 21:54:22 15° NNE visible
25 Sep 6.0 22:10:11 10° N 22:11:13 17° N 22:11:13 17° N visible
26 Sep 6.2 22:27:06 10° NNW 22:28:05 16° NNW 22:28:05 16° NNW visible
27 Sep 5.8 21:06:56 10° NNE 21:07:51 14° NNE 21:07:51 14° NNE visible
27 Sep 6.5 22:44:14 10° NNW 22:44:58 14° NNW 22:44:58 14° NNW visible
28 Sep 5.6 21:23:19 10° N 21:24:46 19° NNE 21:24:46 19° NNE visible
28 Sep 6.8 23:01:43 10° NW 23:01:54 11° NW 23:01:54 11° NW visible
29 Sep 5.5 21:40:00 10° N 21:41:42 23° N 21:41:42 23° N visible
30 Sep 5.8 20:21:01 10° NE 20:21:31 11° NE 20:21:31 11° NE visible
30 Sep 5.6 21:56:54 10° NNW 21:58:39 23° NNW 21:58:39 23° NNW visible
